Palmer, AK

11:13 PM AKDT on July 26, 2016 (GMT -0800)
Palmer Municipal

Weather History for PAAQ - May, 2013

Change the Weather History Date:

Thursday, May 2, 2013

  Actual Average Record
Temperature  
Mean Temperature 40 °F -  
Max Temperature 45 °F 53 °F 72 °F (2014)
Min Temperature 35 °F 33 °F 23 °F (1992)
Degree Days  
Heating Degree Days 26    
Moisture  
Dew Point 30 °F    
Average Humidity 72    
Maximum Humidity 86    
Minimum Humidity 55    
Precipitation  
Precipitation 0.01 in - - ()
Sea Level Pressure  
Sea Level Pressure 29.79 in    
Wind  
Wind Speed 3 mph (East)    
Max Wind Speed 20 mph    
Max Gust Speed 31 mph    
Visibility 10 miles    
Events Rain , Snow    
Averages and records for this station are not official NWS values.
T = Trace of Precipitation, MM = Missing Value Source: NWS Daily Summary

Daily Weather History Graph

Daily Weather History Graph

Search for Another Location

Airport or City:

Trip Planner

Search our weather history database for the weather conditions in past years. The results will help you decide how hot, cold, wet, or windy it might be!

Date:

Astronomy

May. 02, 2013 Rise Set
Actual Time 5:41 AM AKDT 10:07 PM AKDT
Civil Twilight 4:41 AM AKDT 11:07 PM AKDT
Nautical Twilight 2:53 AM AKDT 1:03 AM AKDT
Astronomical Twilight Sun does not set Sun does not set
Moon 3:41 AM AKDT (5/2) 1:06 PM AKDT (5/2)
Length of Visible Light 18h 25m
Length of Day
16h 26m
Last Quarter, 46% of the Moon is Illuminated
May 2
Last Quarter
May 9
New
May 17
First Quarter
May 24
Full
May 31
Last Quarter

Hourly Weather History & Observations

Time (AKDT) Temp. Windchill Dew Point Humidity Pressure Visibility Wind Dir Wind Speed Gust Speed Precip Events Conditions
12:53 AM 37.9 °F - 25.0 °F 60% 29.64 in 10.0 mi Calm Calm - N/A   Overcast
1:53 AM 37.0 °F - 26.1 °F 65% 29.66 in 10.0 mi Calm Calm - N/A   Overcast
2:53 AM 37.0 °F - 27.0 °F 67% 29.68 in 10.0 mi Calm Calm - N/A   Overcast
3:53 AM 36.0 °F - 27.0 °F 70% 29.70 in 10.0 mi Calm Calm - N/A   Overcast
4:53 AM 35.1 °F - 27.0 °F 72% 29.71 in 10.0 mi Calm Calm - N/A   Overcast
5:53 AM 35.1 °F - 28.0 °F 76% 29.73 in 10.0 mi Calm Calm - N/A   Overcast
6:53 AM 36.0 °F - 26.1 °F 67% 29.75 in 10.0 mi Calm Calm - N/A   Overcast
7:53 AM 36.0 °F - 30.0 °F 79% 29.76 in 9.0 mi Calm Calm - 0.00 in   Overcast
8:00 AM 35.6 °F - 28.4 °F 75% 29.75 in 7.0 mi Calm Calm - 0.00 in Snow Light Snow
8:53 AM 35.1 °F - 30.0 °F 82% 29.77 in 6.0 mi Calm Calm - 0.00 in Snow Light Snow
9:53 AM 36.0 °F - 30.0 °F 79% 29.78 in 5.0 mi Calm Calm - 0.00 in Rain Light Rain
10:37 AM 37.4 °F - 30.2 °F 75% 29.77 in 10.0 mi Calm Calm - 0.00 in   Overcast
10:46 AM 37.4 °F - 30.2 °F 75% 29.77 in 10.0 mi Calm Calm - 0.00 in   Overcast
10:48 AM 37.4 °F - 28.4 °F 70% 29.77 in 10.0 mi Calm Calm - 0.00 in   Overcast
10:53 AM 36.0 °F 33.3 °F 30.9 °F 82% 29.79 in 10.0 mi ESE 3.5 mph - 0.00 in   Overcast
11:13 AM 35.6 °F 32.8 °F 30.2 °F 81% 29.78 in 10.0 mi ESE 3.5 mph - 0.00 in   Overcast
11:53 AM 37.0 °F - 30.0 °F 76% 29.81 in 10.0 mi Calm Calm - 0.00 in   Overcast
12:53 PM 37.9 °F - 30.9 °F 76% 29.82 in 10.0 mi Calm Calm - 0.00 in   Overcast
1:53 PM 39.9 °F 35.8 °F 30.0 °F 68% 29.83 in 10.0 mi North 5.8 mph - 0.00 in Rain Light Rain
2:06 PM 39.2 °F 34.2 °F 30.2 °F 70% 29.82 in 10.0 mi NNW 6.9 mph - 0.00 in Rain Light Rain
2:53 PM 39.9 °F 35.8 °F 36.0 °F 86% 29.85 in 10.0 mi North 5.8 mph - 0.01 in Rain Light Rain
3:53 PM 43.0 °F 36.4 °F 32.0 °F 65% 29.85 in 10.0 mi ESE 12.7 mph 17.3 mph 0.00 in   Overcast
4:53 PM 44.1 °F 39.5 °F 32.0 °F 63% 29.85 in 10.0 mi ESE 8.1 mph 17.3 mph N/A   Overcast
5:53 PM 43.0 °F 41.3 °F 33.1 °F 68% 29.85 in 10.0 mi Variable 3.5 mph - N/A   Overcast
6:53 PM 44.1 °F 36.5 °F 30.9 °F 60% 29.85 in 10.0 mi ESE 17.3 mph 21.9 mph N/A   Overcast
7:53 PM 42.1 °F 33.6 °F 32.0 °F 67% 29.85 in 10.0 mi SE 18.4 mph 24.2 mph 0.00 in   Overcast
8:53 PM 43.0 °F 34.5 °F 30.9 °F 62% 29.86 in 10.0 mi SE 19.6 mph 31.1 mph N/A   Overcast
9:53 PM 39.0 °F 34.0 °F 33.1 °F 79% 29.87 in 10.0 mi North 6.9 mph - N/A   Overcast
10:53 PM 39.0 °F 34.8 °F 33.1 °F 79% 29.86 in 10.0 mi Variable 5.8 mph 17.3 mph N/A   Overcast
11:53 PM 44.1 °F 37.1 °F 28.9 °F 55% 29.85 in 10.0 mi ESE 15.0 mph 25.3 mph N/A   Overcast